星链-2481 (STARLINK-2481 )

导读 | 豆包AI

STARLINK-2481是美国SpaceX公司星链星座的一员,属于星链第一代低轨互联网卫星项目,于2021年4月7日由猎鹰9号火箭发射升空。它运行在近地轨道,配备氪离子推进系统与相控阵通信天线,为全球提供高速低延迟卫星互联网服务,可覆盖偏远地区,助力弥合数字鸿沟,也承担部分商业与应急通信任务,是星链大规模组网部署中的组成卫星。

Basic Information
目录编号:
48138
目录名称:
STARLINK-2481
国际标识:
2021-027AY
轨道中心:
EARTH
卫星名称:
星链-2481
卫星全名:
星链-2481 (STARLINK-2481 )
卫星状态:
在轨 (已飞行1802 天)
发射日期:
2021-04-07 UTC
国别 :
美国 (US)
星等 :
--
Orbit Information
数据来源 国际轨道数据 AOE轨道数据
星历时间 2026-03-14T05:42:59+0800
18小时前
查看轨道信息
2026-03-14T09:00:00+0800
15小时前
查看轨道信息
半长轴 6853.329km 6853.318km
偏心率 0.0001056 0.0001124
轨道倾角 53.159° 53.158°
近地点辐角 93.326° 89.638°
升交点赤经 148.216° 147.580°
平近点角 266.786° 304.619°
近地点 474.468km 474.41km
远地点 475.916km 475.952km
周期 94.105分钟 94.105分钟
每日圈数 15.302079 15.302116
Detailed Information
固有亮度:
5
最大亮度:
2.5
卫星平台:
Starlink V1.0
覆盖范围:
全球
运营商:
太空探索技术公司
运营商所在国:
美国
制造商(研发单位):
太空探索技术公司
制造商所在国:
美国
使用方式:
暂无
Satellite Introduction
星链(Starlink)计划是由太空探索技术公司(SpaceX)提出的一个巨型低轨卫星互联网星座项目,计划在2019年至2024年间在太空搭建由约1.2万颗卫星组成的“星链”网络,其中1584颗将部署在地球上空550千米处的近地轨道,并从2020年开始工作。该卫星仍在工作。
2D Orbit Map
3D Orbit Map
Orbit Altitude Analysis Chart
Orbit Inclination Analysis Chart
Orbit Comprehensive Analysis Chart
View Comprehensive Chart